Location: Las Vegas
(36.1750°N, 115.1360°W)
Time: 20:28:42
(UTC-07:00)

Amateur Radio Satellites - All Passes

Search period start: 16 September 2014 19:58
Search period end: 17 September 2014 19:58
Location: Las Vegas, 36.1750°N, 115.1360°W

Satellite Date Start Highest point End Downlink Frequencies (MHz)
Time Altitude Azimuth
MaSat-1 16 Sep 20:01:05 20:02:10 11° 261° (W) 20:03:12 437.345 MHz
AO-40 16 Sep 20:25:32 02:33:04 48° 182° (S) 07:02:18 Beacon 2401.320
KITSAT 1 16 Sep 20:31:13 20:39:13 63° 301° (WNW) 20:47:15 435.175 FM
Oscar 11 16 Sep 20:39:19 20:42:03 17° 67° (ENE) 20:44:48 145.825 FM, Beacon 2401.500 USB
Sapphire 16 Sep 20:40:48 20:42:49 12° 45° (NE) 20:44:49 437.095 MHz 1200 baud AX-25 AFSK
STRAND 1 16 Sep 20:43:02 20:46:46 21° 294° (WNW) 20:50:31 ?
HO-68 16 Sep 20:45:37 20:52:44 77° 72° (ENE) 20:59:53 435.675 MHz FM
UKube-1 16 Sep 20:51:32 20:55:25 33° 71° (ENE) 20:59:18 145.840 MHz, 145.915 MHz
PCSat 16 Sep 21:06:41 21:10:43 21° 51° (NE) 21:14:44 145.825 MHz
FUNcube-1 16 Sep 21:55:01 21:59:09 45° 73° (ENE) 22:03:24 145.950 - 145.970 MHz USB
Oscar 11 16 Sep 22:13:50 22:17:54 38° 262° (W) 22:22:00 145.825 FM, Beacon 2401.500 USB
Sapphire 16 Sep 22:21:38 22:27:06 81° 63° (ENE) 22:32:31 437.095 MHz 1200 baud AX-25 AFSK
UKube-1 16 Sep 22:28:41 22:31:39 18° 265° (W) 22:34:39 145.840 MHz, 145.915 MHz
KITSAT 1 16 Sep 22:32:00 22:36:22 15° 324° (NW) 22:40:45 435.175 FM
HO-68 16 Sep 22:36:50 22:41:02 16° 268° (W) 22:45:17 435.675 MHz FM
SO-50 16 Sep 22:36:59 22:41:17 52° 116° (ESE) 22:45:43 436.795 FM
PCSat 16 Sep 22:49:10 22:54:26 53° 248° (WSW) 22:59:40 145.825 MHz
FUNcube-1 16 Sep 23:33:37 23:35:47 14° 268° (W) 23:37:58 145.950 - 145.970 MHz USB
Sapphire 17 Sep 00:08:21 00:09:44 11° 258° (WSW) 00:11:08 437.095 MHz 1200 baud AX-25 AFSK
SO-50 17 Sep 00:19:12 00:22:10 17° 313° (NW) 00:25:11 436.795 FM
UOSAT-12 17 Sep 00:31:15 00:35:47 63° 117° (ESE) 00:40:25 437.025 FM, 437.400 FM
Uribyol 2 17 Sep 01:29:39 01:30:40 11° 91° (E) 01:31:41 436.500 FM
JAS-1B 17 Sep 01:41:26 01:44:56 16° 93° (E) 01:48:26 435.800 - 435.900 CW/SSB
Oscar 10/S400 17 Sep 01:43:26 02:57:06 42° 232° (SW) 08:11:35 145.825 - 145.975 CW/USB, Beacon 145.810 USB
Oscar 19 17 Sep 01:45:04 01:49:53 39° 98° (E) 01:54:40 437.125 CW, 437.150 USB
AO-27 17 Sep 01:56:21 02:00:13 21° 95° (E) 02:04:03 436.795 MHz FM
PANSAT 17 Sep 02:06:11 02:07:55 13° 161° (SSE) 02:09:40 not established
UOSAT-12 17 Sep 02:13:32 02:16:21 16° 314° (NW) 02:19:13 437.025 FM, 437.400 FM
Saudisat 1A 17 Sep 02:14:31 02:18:21 28° 52° (NE) 02:22:09 436.775 MHz
Oscar 16 17 Sep 02:23:06 02:28:18 83° 284° (WNW) 02:33:27 437.025 USB, Beacon 2401.1428
Gurwin Techsat 1B 17 Sep 02:32:29 02:36:31 22° 94° (E) 02:40:32 435.225 FM
ISS 17 Sep 02:34:24 02:37:10 25° 131° (SE) 02:39:57 145.800 FM
KITSAT 1 17 Sep 02:35:58 02:37:08 10° 28° (NNE) 02:38:19 435.175 FM
AO-Echo 17 Sep 02:59:19 03:04:09 76° 284° (WNW) 03:09:06 ?
ITAMSAT 1 17 Sep 03:00:25 03:05:40 90° 105° (ESE) 03:10:53 435.822 SSB
Uribyol 2 17 Sep 03:05:25 03:10:38 77° 285° (WNW) 03:15:51 436.500 FM
TMSAT-1 17 Sep 03:10:45 03:15:39 37° 98° (E) 03:20:32 436.925 FM
Oscar 19 17 Sep 03:25:01 03:28:57 22° 293° (WNW) 03:32:51 437.125 CW, 437.150 USB
JAS-1B 17 Sep 03:30:28 03:36:02 51° 289° (WNW) 03:41:31 435.800 - 435.900 CW/SSB
AO-27 17 Sep 03:34:58 03:39:50 41° 289° (WNW) 03:44:42 436.795 MHz FM
PANSAT 17 Sep 03:44:24 03:47:31 24° 174° (S) 03:50:38 not established
Saudisat 1A 17 Sep 03:54:09 03:57:49 26° 248° (WSW) 04:01:29 436.775 MHz
OPAL 17 Sep 04:01:10 04:06:01 43° 69° (ENE) 04:10:55 ?
RS-15 17 Sep 04:06:13 04:16:54 56° 111° (ESE) 04:27:23 29.354 - 29.394 USB, Beacon 29.352 USB
Uosat F 17 Sep 04:07:49 04:11:34 21° 95° (E) 04:15:19 435.120 FM
ISS 17 Sep 04:10:51 04:13:48 29° 326° (NW) 04:16:46 145.800 FM
Gurwin Techsat 1B 17 Sep 04:11:39 04:16:35 41° 289° (WNW) 04:21:31 435.225 FM
KITSAT 1 17 Sep 04:27:32 04:35:06 42° 53° (NE) 04:42:37 435.175 FM
AO-7 17 Sep 04:34:20 04:42:17 49° 101° (ESE) 04:50:12 29.400 - 29.500 MHz
ITAMSAT 1 17 Sep 04:43:52 04:44:21 10° 299° (WNW) 04:44:50 435.822 SSB
TMSAT-1 17 Sep 04:51:08 04:55:19 24° 293° (WNW) 04:59:30 436.925 FM
PANSAT 17 Sep 05:24:06 05:27:13 23° 187° (S) 05:30:20 not established
Hamsat 17 Sep 05:29:59 05:32:08 14° 92° (E) 05:34:16 145.90 MHz
JAS-2 17 Sep 05:32:30 05:37:25 25° 96° (E) 05:42:46 435.800 - 435.900 CW/SSB, 435.910 FM
OPAL 17 Sep 05:41:16 05:45:01 20° 264° (W) 05:48:50 ?
Uosat F 17 Sep 05:45:48 05:50:26 38° 289° (WNW) 05:55:03 435.120 FM
STRAND 1 17 Sep 06:16:25 06:21:15 46° 72° (ENE) 06:26:06 ?
RS-15 17 Sep 06:19:20 06:29:30 41° 313° (NW) 06:39:40 29.354 - 29.394 USB, Beacon 29.352 USB
KITSAT 1 17 Sep 06:23:01 06:30:25 42° 251° (WSW) 06:37:48 435.175 FM
AO-7 17 Sep 06:27:32 06:34:46 35° 298° (WNW) 06:42:00 29.400 - 29.500 MHz
Hamsat 17 Sep 07:04:16 07:08:17 41° 287° (WNW) 07:12:14 145.90 MHz
PANSAT 17 Sep 07:05:06 07:06:49 13° 199° (SSW) 07:08:31 not established
SO-50 17 Sep 07:11:17 07:15:18 26° 51° (NE) 07:19:21 436.795 FM
SO-67 17 Sep 07:16:39 07:19:43 29° 97° (E) 07:22:45 435.3500 MHz FM
JAS-2 17 Sep 07:16:52 07:22:32 47° 288° (WNW) 07:28:54 435.800 - 435.900 CW/SSB, 435.910 FM
STRAND 1 17 Sep 07:57:17 08:00:38 18° 266° (W) 08:04:00 ?
MaSat-1 17 Sep 08:04:59 08:09:19 30° 106° (ESE) 08:13:41 437.345 MHz
HO-68 17 Sep 08:18:31 08:22:33 16° 92° (E) 08:26:33 435.675 MHz FM
RS-15 17 Sep 08:40:40 08:46:09 15° 344° (NNW) 08:51:41 29.354 - 29.394 USB, Beacon 29.352 USB
SO-67 17 Sep 08:50:52 08:52:26 13° 291° (WNW) 08:54:00 435.3500 MHz FM
SO-50 17 Sep 08:51:31 08:55:55 36° 247° (WSW) 09:00:20 436.795 FM
UOSAT-12 17 Sep 09:03:47 09:07:50 27° 51° (NE) 09:11:48 437.025 FM, 437.400 FM
ISS 17 Sep 09:05:34 09:07:36 15° 26° (NNE) 09:09:38 145.800 FM
MaSat-1 17 Sep 09:41:39 09:46:03 30° 301° (WNW) 09:50:27 437.345 MHz
FUNcube-1 17 Sep 09:48:59 09:50:40 12° 91° (E) 09:52:21 145.950 - 145.970 MHz USB
HO-68 17 Sep 10:03:42 10:10:54 81° 287° (WNW) 10:18:04 435.675 MHz FM
Oscar 11 17 Sep 10:03:55 10:08:06 44° 99° (E) 10:12:14 145.825 FM, Beacon 2401.500 USB
UKube-1 17 Sep 10:17:54 10:22:16 88° 283° (WNW) 10:26:38 145.840 MHz, 145.915 MHz
ISS 17 Sep 10:41:20 10:44:40 74° 223° (SW) 10:47:58 145.800 FM
UOSAT-12 17 Sep 10:43:49 10:47:57 31° 248° (WSW) 10:52:00 437.025 FM, 437.400 FM
RS-15 17 Sep 10:58:35 11:05:16 17° 23° (NNE) 11:12:02 29.354 - 29.394 USB, Beacon 29.352 USB
Sapphire 17 Sep 11:20:18 11:23:11 15° 104° (ESE) 11:26:05 437.095 MHz 1200 baud AX-25 AFSK
FUNcube-1 17 Sep 11:22:49 11:27:22 57° 285° (WNW) 11:31:51 145.950 - 145.970 MHz USB
Oscar 11 17 Sep 11:41:32 11:43:52 14° 294° (WNW) 11:46:11 145.825 FM, Beacon 2401.500 USB
PCSat 17 Sep 11:45:37 11:50:12 29° 108° (ESE) 11:54:49 145.825 MHz
HO-68 17 Sep 11:54:08 11:57:29 14° 305° (NW) 12:00:49 435.675 MHz FM
Oscar 16 17 Sep 12:01:51 12:03:49 12° 62° (ENE) 12:05:48 437.025 USB, Beacon 2401.1428
Oscar 10/S400 17 Sep 12:11:37 12:26:49 13° 159° (SSE) 12:36:43 145.825 - 145.975 CW/USB, Beacon 145.810 USB
JAS-1B 17 Sep 12:23:07 12:28:34 19° 62° (ENE) 12:33:30 435.800 - 435.900 CW/SSB
ITAMSAT 1 17 Sep 12:40:33 12:42:12 12° 61° (ENE) 12:43:52 435.822 SSB
Uribyol 2 17 Sep 12:44:25 12:46:57 14° 63° (ENE) 12:49:29 436.500 FM
Oscar 19 17 Sep 12:59:15 13:04:08 44° 71° (ENE) 13:09:03 437.125 CW, 437.150 USB
Sapphire 17 Sep 13:00:39 13:06:00 63° 299° (WNW) 13:11:23 437.095 MHz 1200 baud AX-25 AFSK
RS-15 17 Sep 13:10:17 13:21:05 53° 52° (NE) 13:32:16 29.354 - 29.394 USB, Beacon 29.352 USB
AO-27 17 Sep 13:12:04 13:16:12 25° 67° (ENE) 13:20:20 436.795 MHz FM
PCSat 17 Sep 13:28:35 13:33:28 34° 304° (NW) 13:38:24 145.825 MHz
Oscar 16 17 Sep 13:37:18 13:42:28 76° 257° (WSW) 13:47:42 437.025 USB, Beacon 2401.1428
Gurwin Techsat 1B 17 Sep 13:51:02 13:55:25 27° 68° (ENE) 13:59:48 435.225 FM
JAS-1B 17 Sep 14:09:25 14:18:30 85° 256° (WSW) 14:26:09 435.800 - 435.900 CW/SSB
AO-Echo 17 Sep 14:09:48 14:14:36 77° 258° (WSW) 14:19:19 ?
ITAMSAT 1 17 Sep 14:15:49 14:20:59 79° 257° (WSW) 14:26:10 435.822 SSB
Uribyol 2 17 Sep 14:20:42 14:25:48 66° 258° (WSW) 14:30:58 436.500 FM
TMSAT-1 17 Sep 14:28:53 14:33:52 45° 72° (ENE) 14:38:54 436.925 FM
Oscar 19 17 Sep 14:39:57 14:43:37 20° 266° (W) 14:47:19 437.125 CW, 437.150 USB
AO-27 17 Sep 14:50:49 14:55:30 35° 262° (W) 15:00:13 436.795 MHz FM
Uosat F 17 Sep 15:18:47 15:22:37 23° 67° (ENE) 15:26:28 435.120 FM
RS-15 17 Sep 15:22:58 15:33:11 43° 252° (WSW) 15:43:50 29.354 - 29.394 USB, Beacon 29.352 USB
AO-7 17 Sep 15:30:15 15:38:12 53° 66° (ENE) 15:46:09 29.400 - 29.500 MHz
Gurwin Techsat 1B 17 Sep 15:30:28 15:35:12 33° 263° (W) 15:39:59 435.225 FM
JAS-1B 17 Sep 16:05:06 16:09:27 15° 268° (W) 16:13:33 435.800 - 435.900 CW/SSB
TMSAT-1 17 Sep 16:10:15 16:13:58 19° 266° (W) 16:17:42 436.925 FM
OPAL 17 Sep 16:15:38 16:18:10 14° 94° (E) 16:20:40 ?
Saudisat 1A 17 Sep 16:20:36 16:22:33 13° 108° (ESE) 16:24:30 436.775 MHz
Uosat F 17 Sep 16:56:35 17:01:09 36° 262° (W) 17:05:45 435.120 FM
AO-7 17 Sep 17:24:02 17:31:10 31° 262° (W) 17:38:20 29.400 - 29.500 MHz
JAS-2 17 Sep 17:27:06 17:32:19 53° 73° (ENE) 17:37:21 435.800 - 435.900 CW/SSB, 435.910 FM
OPAL 17 Sep 17:52:18 17:57:25 61° 288° (WNW) 18:02:25 ?
Hamsat 17 Sep 17:54:13 17:58:35 85° 258° (WSW) 18:02:58 145.90 MHz
Saudisat 1A 17 Sep 17:57:19 18:01:37 54° 303° (WNW) 18:05:58 436.775 MHz
MaSat-1 17 Sep 18:01:05 18:04:22 27° 58° (ENE) 18:07:15 437.345 MHz
STRAND 1 17 Sep 18:30:33 18:34:13 19° 94° (E) 18:37:51 ?
KITSAT 1 17 Sep 18:52:53 19:00:14 40° 108° (ESE) 19:07:34 435.175 FM
JAS-2 17 Sep 19:14:51 19:17:44 15° 267° (W) 19:20:34 435.800 - 435.900 CW/SSB, 435.910 FM
SO-67 17 Sep 19:19:18 19:22:42 56° 260° (W) 19:26:06 435.3500 MHz FM
MaSat-1 17 Sep 19:38:52 19:40:43 14° 260° (W) 19:42:25 437.345 MHz
